sat.trackr.live / text

‹ back to catalog

TIANMU-1 10

NORAD 57402 · 2023-101D

PAYLOAD ACTIVE UNKNOWN

§ Identity

Operator
Country
PRC
Launch date
2023-07-20
Launch site
JSC
Launch vehicle
Mass (kg)
RCS (m²)

Purposes: earth_obs

External: N2YO · Heavens-Above · Gunter

§ Orbital elements

Epoch: 2026-09-19T23:04:24.695616Z

Period
94.07 min
Inclination
97.2531°
Eccentricity
0.0005552
Mean motion
15.30778195 rev/d
Perigee alt
469.7 km
Apogee alt
477.3 km
Semi-major
6,851.6 km
B*
1.3733e-4
RAAN
311.7404°
Arg perigee
141.8684°
Mean anomaly
218.2951°
Rev number
17,613

§ Raw data

TIANMU-1 101 57402U 23101D   26262.96139694  .00004011  00000+0  13733-3 0  99952 57402  97.2531 311.7404 0005552 141.8684 218.2951 15.30778195176138

JSON: /api/v1/satellites/57402 · /tle

For live sub-satellite position, see the globe view (requires WebGL).

§ Visibility from observer

Set your observer location to see the next 7 days of passes ≥ 10°. The values pass through the URL so the page stays shareable.

No JS? Fill the form by hand. The geolocation button needs JavaScript.